Location: Hiram
(41.3130°N, 81.1440°W)
Time: 10:56:40
(UTC-05:00)

Amateur Radio Satellites - All Passes

Search period start: 23 November 2014 10:26
Search period end: 24 November 2014 10:26
Location: Hiram, 41.3130°N, 81.1440°W

Satellite Date Start Highest point End Downlink Frequencies (MHz)
Time Altitude Azimuth
DUCHIFAT 1 23 Nov 10:28:02 10:32:18 81° 76° (ENE) 10:36:34 145.980
ESTCUBE 1 23 Nov 10:28:17 10:30:13 13° 90° (E) 10:32:09 437.505/2401.250
UNISAT 6 23 Nov 10:32:03 10:36:18 63° 259° (W) 10:40:33 437.425
SHINDAISAT 23 Nov 10:35:57 10:37:07 16° 117° (ESE) 10:38:18 437.305
AAUSAT CUBESAT 2 23 Nov 10:38:39 10:42:08 25° 291° (WNW) 10:45:37 437.432
VELOX 1 23 Nov 10:38:58 10:43:11 42° 99° (E) 10:47:21 145.980
CANX-2 23 Nov 10:39:49 10:42:29 16° 295° (WNW) 10:45:09 2200.000
DOVE 4 23 Nov 10:43:28 10:47:03 29° 290° (WNW) 10:50:41 437.250
NANOSAT C BR1 23 Nov 10:47:00 10:51:13 61° 259° (W) 10:55:27 145.865
ZACube-1 23 Nov 10:48:23 10:52:36 90° 276° (W) 10:56:53 437.345
COMPASS 1 23 Nov 10:52:23 10:55:08 17° 295° (WNW) 10:57:53 437.405
HUMSAT D 23 Nov 10:54:51 10:59:00 64° 101° (E) 11:03:09 437.325/437.525
QB50P1 23 Nov 10:56:36 11:00:43 47° 261° (W) 11:04:51 145.935-145.965
DELFI C3 23 Nov 10:59:11 11:02:54 33° 289° (WNW) 11:06:37 145.870
ANTELSAT 23 Nov 11:01:03 11:04:49 30° 263° (W) 11:08:36 437.575/2403.000
AISAT 23 Nov 11:03:08 11:07:35 81° 103° (ESE) 11:11:59 437.250
50 SAT 23 Nov 11:04:18 11:08:21 69° 102° (ESE) 11:12:24 437.505
HO-68 23 Nov 11:06:22 11:12:05 27° 301° (WNW) 11:17:47 435.675
GOMX 1 23 Nov 11:13:16 11:14:40 12° 297° (WNW) 11:16:04 467.674
POPSAT HIP 1 23 Nov 11:21:41 11:25:15 26° 264° (W) 11:28:49 437.405
BUGSAT 1 23 Nov 11:23:52 11:27:34 28° 264° (W) 11:31:17 437.445
GONETS M04 23 Nov 11:24:30 11:29:12 15° 302° (WNW) 11:33:56
FUNcube-1 23 Nov 11:24:38 11:28:29 36° 289° (WNW) 11:32:23 145.935
UKube-1 23 Nov 11:27:25 11:30:29 19° 295° (WNW) 11:33:33 .
CUBEBUG 1 23 Nov 11:27:39 11:31:56 52° 100° (E) 11:36:09 437.445
TISAT 1 23 Nov 11:29:29 11:31:29 13° 91° (E) 11:33:29 437.305
SPROUT 23 Nov 11:30:06 11:31:40 12° 90° (E) 11:33:14 437.525
SO-50 23 Nov 11:31:21 11:32:56 11° 33° (NNE) 11:34:32 436.795
CUBEBUG 2 23 Nov 11:36:59 11:40:06 21° 293° (WNW) 11:43:16 437.445
Oscar 11 23 Nov 11:42:16 11:43:59 12° 298° (WNW) 11:45:41 145.826/435.025
UWE-3 23 Nov 11:43:40 11:46:44 20° 293° (WNW) 11:49:51 435.000/436.395/437.385
CINEMA 3 23 Nov 11:43:48 11:45:22 12° 297° (WNW) 11:46:57 145.822/145.860
POLYITAN 1 23 Nov 11:55:49 11:57:14 11° 270° (W) 11:58:39 437.675
QB50P2 23 Nov 11:59:47 12:00:33 10° 270° (W) 12:01:19 145.880/145.840
ESTCUBE 1 23 Nov 12:03:01 12:07:31 62° 286° (WNW) 12:11:58 437.505/2401.250
VELOX 1 23 Nov 12:16:24 12:19:27 19° 295° (WNW) 12:22:30 145.980
HUMSAT D 23 Nov 12:32:51 12:34:17 12° 297° (WNW) 12:35:44 437.325/437.525
SWISSCUBE 23 Nov 12:40:44 12:43:09 14° 90° (E) 12:45:33 437.505
50 SAT 23 Nov 12:42:24 12:43:07 10° 298° (WNW) 12:43:51 437.505
AISAT 23 Nov 12:42:40 12:43:33 11° 300° (WNW) 12:44:25 437.250
Oscar 19 23 Nov 12:49:58 12:54:59 61° 73° (ENE) 13:00:02 437.125/150
TISAT 1 23 Nov 13:03:33 13:07:39 51° 287° (WNW) 13:11:42 437.305
SPROUT 23 Nov 13:03:55 13:08:09 59° 286° (WNW) 13:12:20 437.525
CUBEBUG 1 23 Nov 13:05:21 13:07:52 15° 297° (WNW) 13:10:22 437.445
SO-50 23 Nov 13:09:44 13:14:32 56° 54° (NE) 13:19:21 436.795
BEESAT 23 Nov 13:11:11 13:15:12 26° 95° (E) 13:19:12 436.000
AUBIESAT-1 23 Nov 13:19:52 13:24:30 40° 102° (ESE) 13:29:02 437.475
M-CUBED/EXP-1 PRIME 23 Nov 13:22:52 13:27:39 47° 104° (ESE) 13:32:20 437.505
ITAMSAT 1 23 Nov 13:36:16 13:41:26 66° 73° (ENE) 13:46:37 435.822/435.867
YUBILEINY 23 Nov 13:42:36 13:51:04 52° 76° (ENE) 13:59:26 435.215
Gurwin Techsat 1B 23 Nov 13:51:21 13:56:28 52° 71° (ENE) 14:01:37 435.225
ITUPSAT 1 23 Nov 14:04:27 14:09:18 89° 104° (ESE) 14:14:06 437.325
CUSAT 1 23 Nov 14:08:25 14:10:53 27° 283° (WNW) 14:13:11 437.405
SWISSCUBE 23 Nov 14:16:40 14:21:26 63° 287° (WNW) 14:26:09 437.505
DANDE 23 Nov 14:21:31 14:23:56 23° 283° (WNW) 14:26:09 436.750
KKS-1 23 Nov 14:25:08 14:29:05 31° 97° (E) 14:33:01 437.445
Oscar 19 23 Nov 14:31:43 14:34:44 16° 269° (W) 14:37:46 437.125/150
AO-7 23 Nov 14:34:35 14:41:58 38° 60° (ENE) 14:49:23 29.400- 29.500
HORYU 2 23 Nov 14:38:36 14:42:59 65° 74° (ENE) 14:47:23 437.375
BEESAT 23 Nov 14:48:47 14:53:04 33° 292° (WNW) 14:57:19 436.000
SO-50 23 Nov 14:51:20 14:54:41 19° 250° (WSW) 14:58:02 436.795
AUBIESAT-1 23 Nov 14:55:13 14:59:14 26° 299° (WNW) 15:03:14 437.475
M-CUBED/EXP-1 PRIME 23 Nov 14:58:32 15:02:21 23° 300° (WNW) 15:06:09 437.505
ITAMSAT 1 23 Nov 15:18:26 15:21:22 15° 269° (W) 15:24:19 435.822/435.867
STARS 23 Nov 15:26:42 15:31:07 82° 284° (WNW) 15:35:30 437.465
Gurwin Techsat 1B 23 Nov 15:32:54 15:36:43 20° 268° (W) 15:40:33 435.225
MaSat-1 23 Nov 15:34:22 15:37:08 30° 112° (ESE) 15:39:41 437.345
YUBILEINY 23 Nov 15:39:58 15:47:29 34° 276° (W) 15:54:59 435.215
PHONESAT 2.4 23 Nov 15:42:06 15:44:54 20° 151° (SSE) 15:47:43 2401.200-2431.200
ITUPSAT 1 23 Nov 15:45:08 15:46:26 11° 301° (WNW) 15:47:45 437.325
JAS-2 23 Nov 15:49:08 15:55:51 36° 64° (ENE) 16:02:47 435.910
RS-15 23 Nov 15:51:38 16:01:28 40° 108° (ESE) 16:11:13 29.354- 29.394
KKS-1 23 Nov 16:02:00 16:05:36 25° 293° (WNW) 16:09:10 437.445
VERMONT LUNAR 23 Nov 16:04:09 16:07:27 34° 158° (SSE) 16:10:47 437.305
O/OREOS (USA 219) 23 Nov 16:13:06 16:17:27 48° 64° (ENE) 16:21:46 437.305
HORYU 2 23 Nov 16:18:37 16:20:05 11° 270° (W) 16:21:34 437.375
AO-7 23 Nov 16:26:31 16:34:29 51° 258° (WSW) 16:42:34 29.400- 29.500
CUTE-I 23 Nov 16:37:11 16:40:51 19° 62° (ENE) 16:44:31 437.470
MOZHAYETS 4 23 Nov 16:45:55 16:49:58 29° 95° (E) 16:53:59
MaSat-1 23 Nov 17:10:47 17:11:48 11° 305° (NW) 17:12:48 437.345
PHONESAT 2.4 23 Nov 17:19:39 17:23:19 60° 167° (SSE) 17:27:00 2401.200-2431.200
PRISM 23 Nov 17:24:09 17:25:46 12° 91° (E) 17:27:24 437.425
Cubesat XI-IV 23 Nov 17:32:55 17:38:11 59° 72° (ENE) 17:43:28 437.490
JAS-2 23 Nov 17:33:13 17:40:30 53° 262° (W) 17:48:10 435.910
GONETS M04 23 Nov 17:39:52 17:41:48 11° 54° (NE) 17:43:44
VERMONT LUNAR 23 Nov 17:42:07 17:45:45 76° 174° (S) 17:49:23 437.305
O/OREOS (USA 219) 23 Nov 17:53:44 17:56:25 16° 260° (W) 17:59:06 437.305
RS-15 23 Nov 18:02:32 18:13:18 60° 310° (NW) 18:24:09 29.354- 29.394
CUTE-I 23 Nov 18:15:08 18:20:26 60° 259° (WSW) 18:25:44 437.470
CUBESAT XI-V 23 Nov 18:19:54 18:23:22 20° 93° (E) 18:26:48 437.345
MOZHAYETS 4 23 Nov 18:23:08 18:27:07 29° 292° (WNW) 18:31:06
PRISM 23 Nov 18:57:30 19:01:41 58° 287° (WNW) 19:05:50 437.425
PHONESAT 2.4 23 Nov 18:58:20 19:02:04 79° 184° (S) 19:05:47 2401.200-2431.200
Cubesat XI-IV 23 Nov 19:15:06 19:18:39 18° 268° (W) 19:22:12 437.490
BRITE-PL 23 Nov 19:20:03 19:22:59 16° 65° (ENE) 19:25:48 437.365/2234.400
VERMONT LUNAR 23 Nov 19:20:35 19:24:12 65° 191° (S) 19:27:48 437.305
STRAND 1 23 Nov 19:22:25 19:27:34 80° 103° (ESE) 19:32:39 437.568
GONETS M04 23 Nov 19:32:13 19:40:55 57° 77° (ENE) 19:49:31
SEEDS 23 Nov 19:33:33 19:36:01 15° 65° (ENE) 19:38:30 437.485
HO-68 23 Nov 19:46:08 19:52:56 48° 66° (ENE) 19:59:46 435.675
AIST 1 23 Nov 19:49:56 19:54:01 40° 92° (E) 19:58:10
AAUSAT CUBESAT 2 23 Nov 19:55:11 19:58:11 20° 67° (ENE) 20:01:11 437.432
CANX-2 23 Nov 19:56:17 20:00:04 33° 70° (ENE) 20:03:52 2200.000
CUBESAT XI-V 23 Nov 19:56:35 20:00:58 40° 289° (WNW) 20:05:17 437.345
COMPASS 1 23 Nov 20:07:52 20:11:30 30° 70° (ENE) 20:15:09 437.405
DOVE 4 23 Nov 20:11:57 20:15:47 26° 69° (ENE) 20:19:27 437.250
DELFI C3 23 Nov 20:14:44 20:16:49 14° 64° (ENE) 20:18:54 145.870
RS-15 23 Nov 20:20:13 20:28:36 24° 340° (NNW) 20:37:08 29.354- 29.394
PCSat 23 Nov 20:23:23 20:28:44 68° 116° (ESE) 20:34:08 145.827
CUTE 1.7 & AOD 2 23 Nov 20:30:49 20:35:01 76° 76° (ENE) 20:39:15 437.475
PHONESAT 2.4 23 Nov 20:37:12 20:40:43 40° 200° (SSW) 20:44:12 2401.200-2431.200
GOMX 1 23 Nov 20:40:48 20:45:40 70° 75° (ENE) 20:50:13 467.674
BEESAT 3 23 Nov 20:44:20 20:48:13 45° 117° (ESE) 20:52:12 437.485
UKube-1 23 Nov 20:45:52 20:49:49 35° 70° (ENE) 20:53:47 .
FUNcube-1 23 Nov 20:46:09 20:48:44 16° 65° (ENE) 20:51:19 145.935
BRITE-PL 23 Nov 20:56:00 21:01:06 62° 259° (W) 21:05:49 437.365/2234.400
BEESAT 2 23 Nov 20:57:27 21:01:29 56° 119° (ESE) 21:05:35 435.950
CUBEBUG 2 23 Nov 20:58:43 21:02:26 29° 70° (ENE) 21:06:06 437.445
Oscar 11 23 Nov 20:58:55 21:03:04 51° 73° (ENE) 21:07:16 145.826/435.025
VERMONT LUNAR 23 Nov 20:59:24 21:02:22 24° 207° (SSW) 21:05:19 437.305
STRAND 1 23 Nov 21:03:37 21:06:03 14° 301° (WNW) 21:08:29 437.568
UWE-3 23 Nov 21:04:25 21:08:07 29° 70° (ENE) 21:11:45 435.000/436.395/437.385
CINEMA 3 23 Nov 21:06:31 21:10:53 58° 74° (ENE) 21:15:06 145.822/145.860
SEEDS 23 Nov 21:07:27 21:11:28 46° 261° (W) 21:15:32 437.485
DX 1 23 Nov 21:18:18 21:22:41 82° 76° (ENE) 21:27:05 434.975-435.025
AIST 2 23 Nov 21:20:21 21:24:24 49° 117° (ESE) 21:28:33 435.215
ESTCUBE 1 23 Nov 21:28:46 21:30:53 13° 62° (ENE) 21:33:00 437.505/2401.250
AIST 1 23 Nov 21:28:54 21:31:53 18° 289° (WNW) 21:34:53
GONETS M04 23 Nov 21:29:49 21:37:12 31° 277° (W) 21:44:33
AAUSAT CUBESAT 2 23 Nov 21:29:50 21:33:38 34° 263° (W) 21:37:27 437.432
CANX-2 23 Nov 21:32:57 21:36:05 20° 267° (W) 21:39:14 2200.000
HO-68 23 Nov 21:34:26 21:40:47 33° 264° (W) 21:47:10 435.675
VELOX 1 23 Nov 21:37:00 21:41:10 39° 71° (ENE) 21:45:20 145.980
COMPASS 1 23 Nov 21:44:01 21:47:15 22° 266° (W) 21:50:31 437.405
ZACube-1 23 Nov 21:44:42 21:48:55 72° 76° (ENE) 21:53:05 437.345
HUMSAT D 23 Nov 21:47:26 21:51:23 45° 73° (ENE) 21:55:19 437.325/437.525
DELFI C3 23 Nov 21:47:45 21:51:41 50° 260° (W) 21:55:41 145.870
DOVE 4 23 Nov 21:49:20 21:53:28 30° 263° (W) 21:57:25 437.250
50 SAT 23 Nov 21:53:28 21:57:18 43° 73° (ENE) 22:01:08 437.505
AISAT 23 Nov 22:01:17 22:05:46 74° 75° (ENE) 22:10:15 437.250
QB50P2 23 Nov 22:08:29 22:09:27 11° 90° (E) 22:10:25 145.880/145.840
PCSat 23 Nov 22:08:37 22:12:39 21° 315° (NW) 22:16:43 145.827
TIGRISAT 23 Nov 22:12:40 22:15:49 19° 94° (E) 22:19:00 435.000
DUCHIFAT 1 23 Nov 22:15:21 22:17:17 13° 91° (E) 22:19:12 145.980
PHONESAT 2.4 23 Nov 22:17:50 22:18:54 11° 215° (SW) 22:19:58 2401.200-2431.200
FUNcube-1 23 Nov 22:20:43 22:24:46 44° 261° (W) 22:28:47 145.935
GOMX 1 23 Nov 22:22:22 22:24:08 12° 269° (W) 22:25:53 467.674
UKube-1 23 Nov 22:22:46 22:26:04 21° 266° (W) 22:29:22 .
TISAT 1 23 Nov 22:23:32 22:24:58 12° 62° (ENE) 22:26:24 437.305
BEESAT 3 23 Nov 22:23:33 22:26:40 20° 315° (NW) 22:29:50 437.485
CUBEBUG 1 23 Nov 22:24:00 22:28:14 44° 72° (ENE) 22:32:28 437.445
UNISAT 6 23 Nov 22:24:26 22:28:09 26° 96° (E) 22:31:54 437.425
SPROUT 23 Nov 22:26:01 22:26:52 11° 61° (ENE) 22:27:43 437.525
NANOSAT C BR1 23 Nov 22:33:15 22:36:28 21° 94° (E) 22:39:40 145.865
CUBEBUG 2 23 Nov 22:35:43 22:39:09 23° 265° (W) 22:42:32 437.445
BEESAT 2 23 Nov 22:37:18 22:40:08 18° 317° (NW) 22:43:00 435.950
Oscar 11 23 Nov 22:37:21 22:39:33 14° 269° (W) 22:41:46 145.826/435.025
RS-15 23 Nov 22:38:02 22:46:21 23° 17° (NNE) 22:54:51 29.354- 29.394
UWE-3 23 Nov 22:41:17 22:44:40 23° 265° (W) 22:48:02 435.000/436.395/437.385
QB50P1 23 Nov 22:42:30 22:46:05 26° 96° (E) 22:49:39 145.935-145.965
CINEMA 3 23 Nov 22:46:37 22:48:25 12° 269° (W) 22:50:12 145.822/145.860
ANTELSAT 23 Nov 22:52:25 22:56:45 52° 100° (E) 23:01:10 437.575/2403.000
AIST 2 23 Nov 23:00:07 23:03:18 20° 316° (NW) 23:06:32 435.215
ESTCUBE 1 23 Nov 23:02:40 23:07:11 68° 258° (WSW) 23:11:45 437.505/2401.250
CUSAT 1 23 Nov 23:03:12 23:05:19 13° 73° (ENE) 23:07:40 437.405
BUGSAT 1 23 Nov 23:06:13 23:10:05 39° 98° (E) 23:13:53 437.445
POPSAT HIP 1 23 Nov 23:06:34 23:10:41 49° 100° (E) 23:14:46 437.405
VELOX 1 23 Nov 23:14:40 23:17:53 19° 266° (W) 23:21:08 145.980
DANDE 23 Nov 23:17:38 23:20:03 14° 74° (ENE) 23:22:49 436.750
HUMSAT D 23 Nov 23:25:10 23:27:26 14° 268° (W) 23:29:42 437.325/437.525
50 SAT 23 Nov 23:30:39 23:32:51 14° 268° (W) 23:35:03 437.505
ISS 23 Nov 23:35:48 23:38:00 17° 132° (SE) 23:40:12 145.825
ITUPSAT 1 23 Nov 23:36:58 23:38:56 12° 60° (ENE) 23:40:54 437.325
POLYITAN 1 23 Nov 23:38:32 23:42:44 69° 285° (WNW) 23:46:56 437.675
QB50P2 23 Nov 23:41:36 23:45:48 63° 286° (WNW) 23:49:58 145.880/145.840
AISAT 23 Nov 23:42:24 23:42:54 10° 271° (W) 23:43:24 437.250
SWISSCUBE 23 Nov 23:47:35 23:50:42 18° 63° (ENE) 23:53:49 437.505
TIGRISAT 23 Nov 23:48:37 23:52:42 39° 289° (WNW) 23:56:52 435.000
DUCHIFAT 1 23 Nov 23:49:22 23:53:29 52° 287° (WNW) 23:57:33 145.980
TISAT 1 23 Nov 23:55:59 00:00:15 69° 258° (WSW) 00:04:31 437.305
SPROUT 23 Nov 23:58:00 00:02:20 78° 258° (WSW) 00:06:40 437.525
UNISAT 6 24 Nov 00:01:06 00:04:55 29° 291° (WNW) 00:08:48 437.425
CUBEBUG 1 24 Nov 00:01:55 00:04:49 17° 268° (W) 00:07:44 437.445
NANOSAT C BR1 24 Nov 00:08:39 00:12:25 32° 290° (WNW) 00:16:09 145.865
AUBIESAT-1 24 Nov 00:09:39 00:13:29 48° 67° (ENE) 00:17:42 437.475
M-CUBED/EXP-1 PRIME 24 Nov 00:13:04 00:16:57 57° 68° (ENE) 00:21:14 437.505
BEESAT 24 Nov 00:17:55 00:22:06 31° 68° (ENE) 00:26:18 436.000
QB50P1 24 Nov 00:18:25 00:21:55 26° 292° (WNW) 00:25:23 145.935-145.965
ANTELSAT 24 Nov 00:30:31 00:33:10 16° 296° (WNW) 00:35:51 437.575/2403.000
BUGSAT 1 24 Nov 00:42:38 00:45:17 17° 295° (WNW) 00:47:55 437.445
POPSAT HIP 1 24 Nov 00:43:49 00:46:11 15° 296° (WNW) 00:48:33 437.405
CUSAT 1 24 Nov 00:44:03 00:48:26 67° 262° (W) 00:54:21 437.405
RS-15 24 Nov 00:51:08 01:02:03 54° 48° (NE) 01:13:23 29.354- 29.394
DANDE 24 Nov 00:59:18 01:03:28 55° 262° (W) 01:09:06 436.750
Oscar 19 24 Nov 01:02:15 01:06:10 22° 93° (E) 01:10:05 437.125/150
ISS 24 Nov 01:11:07 01:14:21 55° 328° (NNW) 01:17:36 145.825
ITUPSAT 1 24 Nov 01:11:20 01:16:09 80° 257° (WSW) 01:21:00 437.325
MaSat-1 24 Nov 01:13:07 01:15:23 49° 63° (ENE) 01:17:41 437.345
SWISSCUBE 24 Nov 01:23:25 01:28:07 54° 260° (W) 01:32:51 437.505
KKS-1 24 Nov 01:23:44 01:27:35 29° 68° (ENE) 01:31:26 437.445
AUBIESAT-1 24 Nov 01:46:37 01:48:52 15° 265° (W) 01:51:13 437.475
ITAMSAT 1 24 Nov 01:49:53 01:53:58 23° 94° (E) 01:58:01 435.822/435.867
M-CUBED/EXP-1 PRIME 24 Nov 01:50:58 01:52:31 12° 267° (W) 01:54:07 437.505
BEESAT 24 Nov 01:55:48 01:59:55 28° 264° (W) 02:04:03 436.000
Gurwin Techsat 1B 24 Nov 02:08:20 02:12:14 20° 93° (E) 02:16:07 435.225
STARS 24 Nov 02:23:51 02:28:16 88° 76° (ENE) 02:32:41 437.465
HORYU 2 24 Nov 02:32:09 02:34:08 13° 91° (E) 02:36:07 437.375
Oscar 19 24 Nov 02:40:48 02:45:42 46° 290° (WNW) 02:50:37 437.125/150
YUBILEINY 24 Nov 02:43:03 02:51:38 60° 91° (E) 03:00:12 435.215
ISS 24 Nov 02:49:20 02:51:33 17° 347° (NNW) 02:53:47 145.825
KKS-1 24 Nov 03:00:29 03:04:12 26° 264° (W) 03:07:56 437.445
RS-15 24 Nov 03:03:48 03:14:20 48° 250° (WSW) 03:25:20 29.354- 29.394
SO-50 24 Nov 03:26:21 03:29:13 17° 109° (ESE) 03:32:08 436.795
ITAMSAT 1 24 Nov 03:28:45 03:33:37 43° 290° (WNW) 03:38:28 435.822/435.867
PCSat 24 Nov 03:30:26 03:31:58 11° 35° (NE) 03:33:31 145.827
Gurwin Techsat 1B 24 Nov 03:47:21 03:52:28 50° 289° (WNW) 03:57:34 435.225
MOZHAYETS 4 24 Nov 03:48:18 03:52:09 27° 68° (ENE) 03:56:03
HORYU 2 24 Nov 04:06:46 04:11:11 61° 287° (WNW) 04:15:37 437.375
PRISM 24 Nov 04:17:03 04:17:29 10° 60° (ENE) 04:17:54 437.425
ISS 24 Nov 04:27:15 04:29:12 15° 8° (N) 04:31:09 145.825
AO-7 24 Nov 04:27:34 04:35:47 57° 103° (ESE) 04:43:56 29.400- 29.500
YUBILEINY 24 Nov 04:41:24 04:48:55 31° 291° (WNW) 04:56:28 435.215
JAS-2 24 Nov 04:44:29 04:50:24 28° 90° (E) 04:55:44 435.910
STRAND 1 24 Nov 05:02:01 05:04:54 15° 60° (ENE) 05:07:47 437.568
BEESAT 3 24 Nov 05:04:23 05:08:08 31° 49° (NE) 05:11:51 437.485
SO-50 24 Nov 05:04:52 05:09:17 54° 307° (NW) 05:13:52 436.795
PCSat 24 Nov 05:11:19 05:16:40 54° 56° (ENE) 05:21:57 145.827
BEESAT 2 24 Nov 05:17:52 05:21:48 37° 51° (NE) 05:25:42 435.950
CUBESAT XI-V 24 Nov 05:23:44 05:27:16 21° 66° (ENE) 05:30:49 437.345
MOZHAYETS 4 24 Nov 05:25:18 05:29:17 29° 264° (W) 05:33:20
AIST 2 24 Nov 05:42:28 05:46:26 34° 50° (NE) 05:50:21 435.215
PRISM 24 Nov 05:48:11 05:52:23 78° 257° (WSW) 05:56:38 437.425
Cubesat XI-IV 24 Nov 05:50:58 05:55:10 23° 94° (E) 05:59:19 437.490
AIST 1 24 Nov 05:59:38 06:00:44 11° 67° (ENE) 06:01:50
ISS 24 Nov 06:03:30 06:06:34 35° 27° (NNE) 06:09:39 145.825
AO-7 24 Nov 06:20:53 06:28:10 35° 302° (WNW) 06:35:28 29.400- 29.500
O/OREOS (USA 219) 24 Nov 06:25:12 06:29:36 56° 108° (ESE) 06:33:59 437.305
JAS-2 24 Nov 06:28:49 06:35:50 53° 291° (WNW) 06:42:02 435.910
CUTE-I 24 Nov 06:32:17 06:37:31 55° 101° (E) 06:42:41 437.470
STRAND 1 24 Nov 06:38:20 06:43:28 72° 257° (WSW) 06:48:38 437.568
BEESAT 3 24 Nov 06:42:44 06:46:17 27° 247° (WSW) 06:49:46 437.485
GONETS M04 24 Nov 06:44:20 06:46:26 11° 72° (ENE) 06:48:32
SO-50 24 Nov 06:50:01 06:50:56 11° 328° (NNW) 06:51:51 436.795
PCSat 24 Nov 06:55:39 06:59:39 21° 254° (WSW) 07:03:37 145.827
BEESAT 2 24 Nov 06:56:39 06:59:53 22° 248° (WSW) 07:03:04 435.950
CUBESAT XI-V 24 Nov 06:59:58 07:04:25 41° 262° (W) 07:08:54 437.345
AIST 2 24 Nov 07:21:25 07:24:55 25° 247° (WSW) 07:28:22 435.215
Cubesat XI-IV 24 Nov 07:30:23 07:35:26 45° 290° (WNW) 07:40:27 437.490
AIST 1 24 Nov 07:34:33 07:38:55 68° 265° (W) 07:43:13
ISS 24 Nov 07:40:14 07:43:10 29° 224° (SW) 07:46:05 145.825
O/OREOS (USA 219) 24 Nov 08:06:36 08:09:22 16° 306° (NW) 08:12:08 437.305
CUTE-I 24 Nov 08:13:21 08:17:09 20° 298° (WNW) 08:20:56 437.470
CUTE 1.7 & AOD 2 24 Nov 08:18:05 08:20:11 13° 91° (E) 08:22:17 437.475
JAS-2 24 Nov 08:18:11 08:19:03 10° 312° (NW) 08:19:54 435.910
GONETS M04 24 Nov 08:32:43 08:41:22 66° 92° (E) 08:50:05
GOMX 1 24 Nov 08:43:48 08:46:32 17° 93° (E) 08:49:17 467.674
SEEDS 24 Nov 08:52:28 08:56:09 28° 96° (E) 08:59:50 437.485
HO-68 24 Nov 09:01:01 09:07:57 49° 100° (E) 09:14:48 435.675
BRITE-PL 24 Nov 09:01:10 09:05:01 36° 98° (E) 09:08:53 437.365/2234.400
CINEMA 3 24 Nov 09:03:13 09:05:04 13° 91° (E) 09:06:55 145.822/145.860
DX 1 24 Nov 09:08:33 09:10:48 14° 92° (E) 09:13:03 434.975-435.025
DUCHIFAT 1 24 Nov 09:09:45 09:11:00 11° 62° (ENE) 09:12:14 145.980
TIGRISAT 24 Nov 09:12:37 09:15:23 17° 65° (ENE) 09:18:08 435.000
AAUSAT CUBESAT 2 24 Nov 09:13:18 09:17:12 35° 97° (E) 09:21:06 437.432
CANX-2 24 Nov 09:17:12 09:21:29 68° 101° (ESE) 09:25:45 2200.000
UNISAT 6 24 Nov 09:24:25 09:27:47 23° 67° (ENE) 09:31:09 437.425
COMPASS 1 24 Nov 09:26:58 09:31:10 58° 100° (E) 09:35:21 437.405
NANOSAT C BR1 24 Nov 09:27:03 09:29:52 18° 65° (ENE) 09:32:41 145.865
DELFI C3 24 Nov 09:29:12 09:32:28 22° 94° (E) 09:35:44 145.870
ZACube-1 24 Nov 09:35:10 09:37:14 13° 91° (E) 09:39:19 437.345
QB50P1 24 Nov 09:36:09 09:39:24 22° 67° (ENE) 09:42:40 145.935-145.965
DOVE 4 24 Nov 09:47:48 09:51:57 68° 101° (ESE) 09:56:11 437.250
ANTELSAT 24 Nov 09:52:05 09:56:10 45° 72° (ENE) 10:00:15 437.575/2403.000
CUTE 1.7 & AOD 2 24 Nov 09:52:15 09:56:25 52° 287° (WNW) 10:00:35 437.475
AISAT 24 Nov 09:54:18 09:56:39 14° 91° (E) 09:59:00 437.250
BUGSAT 1 24 Nov 09:56:46 10:00:29 30° 69° (ENE) 10:04:11 437.445
POPSAT HIP 1 24 Nov 09:59:51 10:03:48 38° 71° (ENE) 10:07:46 437.405
FUNcube-1 24 Nov 10:09:22 10:13:10 32° 97° (E) 10:17:00 145.935
UKube-1 24 Nov 10:09:27 10:13:47 65° 102° (ESE) 10:18:04 .
